Location: Grand Mazuras
(45.9128°N, 1.7636°E)
Time: 04:28:40
(UTC+00:00)

In-Cosmos 22 Rocket - Pass Details

Date: 18 April 2021
Orbit: 791 x 887 km, 81.2° (Epoch: 10 May)

Event Time Altitude Azimuth Distance (km) Brightness Sun altitude
Rises 19:30:06 0° 348° (NNW) 3,498 8.0 -8.3°
Reaches altitude 10° 19:32:33 10° 348° (NNW) 2,559 7.3 -8.7°
Maximum altitude 19:38:25 83° 261° (W) 900 4.4 -9.6°
Drops below altitude 10° 19:44:13 10° 174° (S) 2,534 6.4 -10.5°
Sets 19:46:38 0° 174° (S) 3,461 7.0 -10.9°
